Temp
17 14 14 15 15 16 16 16 14 16 17 17 17 17 17 19 19 19 20 19 16 15 14 14 13 13 13 13 13 13 14 15 15 15 15 15 15 15 16 16 17 17 16 17
15 14 16 17 18 17 16 15 14 15 17 17 16 16 16 16 18 19 19 16 15 13 13 13 12 12 12 11 12 12 12 13 14 13 13 14 15 15 15 16 17 17 16 16
15 16 18 18 17 16 16 15 14 15 15 16 15 15 16 16 17 16 14 13 13 13 12 11 11 11 11 11 11 12 12 12 12 12 12 13 14 15 15 16 17 16 15 13
15 17 17 16 16 16 14 16 15 14 13 12 14 12 14 14 14 12 12 12 11 11 11 10 10 10 10 10 10 11 11 12 12 11 12 12 12 14 16 16 17 16 16 15
14 15 15 14 15 16 14 14 14 14 12 11 13 11 13 13 14 11 9 10 10 10 10 9 9 9 9 10 10 10 12 12 12 12 11 11 12 13 15 15 16 16 16 16
13 16 15 14 14 14 13 13 12 12 11 8 12 11 10 9 9 9 9 10 10 9 9 8 9 9 9 9 9 10 11 12 12 11 12 11 12 12 14 15 16 16 16 15
13 14 13 13 12 12 11 9 7 8 8 9 12 11 11 9 9 9 7 6 7 6 6 6 7 8 8 8 9 9 9 11 11 11 12 12 11 12 13 14 15 15 15 14
9 10 12 12 11 11 10 10 6 7 8 8 10 8 10 8 9 9 9 8 8 8 7 6 5 6 7 7 8 8 9 9 9 10 10 12 11 10 12 13 14 15 15 14
9 9 12 12 11 11 9 8 9 7 8 7 7 9 9 7 5 7 7 6 6 6 6 6 7 7 7 7 7 7 8 8 9 9 9 10 11 10 11 13 14 15 13 13
8 7 9 10 11 11 10 10 8 6 5 5 6 7 6 5 4 5 5 5 6 6 6 6 6 6 6 6 6 7 7 8 8 8 9 8 10 10 10 11 14 14 13 12
8 7 7 8 8 7 8 7 8 8 5 5 5 5 5 5 6 6 6 7 7 7 6 6 6 5 6 6 6 7 7 7 8 8 8 8 9 10 10 11 11 12 12 12
7 6 3 6 8 8 8 7 6 2 2 4 4 5 6 5 5 6 7 8 7 7 6 6 5 5 6 6 6 6 7 7 8 7 8 8 9 9 9 10 10 10 12 12
6 3 1 3 4 5 5 5 6 4 2 1 2 4 5 5 3 6 7 7 7 6 5 5 5 5 6 6 6 6 6 6 6 7 7 8 8 9 10 10 10 11 12 12
6 3 2 2 3 2 3 4 4 3 1 1 2 3 5 5 5 6 7 6 7 6 6 6 5 5 5 5 5 5 5 5 6 6 6 7 8 9 10 10 9 11 11 12
4 2 2 3 4 4 4 4 5 2 3 2 4 3 4 5 5 6 7 7 6 6 6 6 5 5 5 4 4 4 4 5 6 6 6 7 8 8 9 9 10 10 10 10
2 1 3 2 4 4 4 5 5 5 3 3 3 3 6 6 6 7 7 6 6 6 6 6 5 5 4 4 4 4 4 4 4 5 6 6 7 8 7 9 9 10 10 10
1 2 1 2 3 3 2 4 4 5 5 5 3 5 5 6 6 7 6 6 6 6 6 6 5 5 4 4 4 3 3 4 4 5 6 6 7 8 8 9 9 9 9 9
2 1 1 2 2 0 3 5 6 5 5 5 5 6 7 6 6 5 5 5 6 6 6 5 5 4 4 4 4 3 3 3 3 5 5 6 6 7 8 8 9 9 9 9
3 2 2 1 0 2 4 6 6 5 4 5 5 5 6 6 6 5 5 5 6 5 5 5 5 5 5 4 3 3 3 3 2 4 5 5 6 7 8 8 8 8 8 8
1 1 1 1 0 1 5 6 7 6 3 6 6 6 5 5 1 1 5 5 5 5 5 5 5 4 4 4 3 3 2 2 1 3 4 6 6 7 7 8 8 8 8 8
-0 -1 -1 -1 1 1 4 6 6 3 3 6 6 6 5 3 4 5 5 4 4 5 5 5 5 4 3 3 2 2 1 1 0 3 3 5 6 7 7 8 8 8 8 8
0 -2 -5 -2 0 0 6 5 5 4 6 6 6 5 5 5 5 4 4 4 4 4 3 4 3 3 3 2 2 0 0 -0 0 2 3 5 6 7 7 8 8 8 8 8
1 -1 -1 -1 0 4 5 5 6 6 6 6 5 5 5 4 4 4 4 4 4 3 3 3 2 2 2 2 1 -1 -0 -1 -0 1 3 5 5 7 7 7 7 7 7 7
2 2 -1 1 3 4 5 6 6 6 6 5 5 5 4 4 4 4 3 3 3 3 2 2 2 1 1 0 -0 -1 -1 -1 -0 1 3 5 5 7 7 7 7 7 7 7
1 2 0 0 3 4 5 6 7 6 5 5 5 4 4 4 3 3 3 3 2 2 2 1 1 0 -0 -1 -1 -1 -1 -0 -0 1 3 4 5 7 7 7 7 7 7 7
0 1 1 2 4 3 4 5 6 5 5 5 4 4 4 3 3 3 3 2 2 1 1 1 1 -0 -1 -1 -1 -1 1 1 1 2 5 4 5 6 6 6 5 6 7 6
Height
1506 1512 1516 1508 1506 1505 1504 1504 1507 1496 1490 1490 1486 1480 1479 1475 1474 1471 1469 1470 1469 1468 1470 1469 1468 1469 1471 1474 1474 1471 1468 1466 1462 1461 1463 1463 1464 1461 1463 1468 1467 1468 1472 1474
1509 1512 1499 1498 1497 1498 1501 1504 1501 1488 1485 1487 1484 1474 1476 1473 1470 1469 1465 1465 1468 1467 1467 1467 1467 1469 1471 1474 1474 1471 1466 1463 1460 1457 1455 1454 1455 1457 1455 1461 1463 1463 1467 1466
1511 1501 1496 1496 1498 1499 1499 1502 1498 1497 1487 1484 1483 1468 1472 1471 1471 1468 1465 1469 1469 1467 1466 1468 1468 1469 1471 1473 1471 1467 1464 1460 1457 1455 1450 1449 1448 1449 1450 1453 1456 1454 1457 1458
1504 1496 1498 1500 1501 1498 1500 1493 1494 1492 1498 1501 1489 1482 1477 1472 1469 1471 1470 1470 1471 1471 1471 1471 1471 1470 1473 1472 1469 1467 1463 1459 1455 1453 1448 1445 1442 1442 1445 1447 1448 1447 1450 1451
1510 1503 1502 1503 1499 1495 1496 1494 1493 1491 1497 1498 1488 1500 1474 1471 1467 1475 1474 1474 1474 1475 1475 1475 1475 1474 1474 1472 1469 1465 1460 1457 1453 1451 1447 1443 1439 1438 1437 1440 1441 1444 1447 1448
1505 1502 1500 1502 1498 1498 1494 1494 1493 1491 1497 1509 1488 1494 1485 1485 1482 1481 1478 1478 1477 1477 1478 1477 1477 1475 1474 1470 1469 1462 1457 1453 1450 1448 1444 1440 1436 1435 1433 1435 1436 1440 1442 1444
1507 1500 1499 1501 1502 1500 1502 1508 1523 1513 1510 1500 1486 1489 1485 1484 1482 1481 1479 1477 1479 1478 1479 1480 1477 1473 1470 1466 1464 1460 1455 1449 1447 1445 1441 1437 1434 1432 1431 1431 1434 1437 1437 1440
1520 1514 1505 1507 1509 1511 1509 1510 1530 1519 1513 1505 1493 1497 1482 1486 1485 1485 1483 1482 1481 1480 1482 1482 1476 1476 1475 1467 1457 1458 1452 1446 1445 1443 1439 1435 1432 1429 1429 1426 1428 1430 1432 1434
1524 1515 1501 1506 1509 1512 1509 1514 1507 1515 1504 1507 1497 1485 1487 1487 1487 1488 1488 1487 1485 1482 1483 1483 1480 1474 1464 1458 1461 1456 1448 1445 1444 1442 1438 1434 1430 1428 1426 1425 1425 1426 1429 1432
1525 1522 1512 1511 1511 1510 1511 1508 1512 1516 1518 1507 1495 1487 1487 1493 1495 1494 1495 1491 1485 1480 1480 1483 1478 1469 1466 1462 1459 1452 1447 1444 1443 1440 1438 1434 1430 1427 1425 1425 1424 1426 1425 1430
1525 1525 1518 1514 1515 1517 1511 1513 1509 1508 1515 1506 1502 1495 1492 1491 1493 1492 1490 1487 1483 1480 1480 1480 1475 1468 1463 1459 1455 1448 1444 1443 1442 1438 1435 1432 1428 1426 1426 1424 1425 1426 1429 1431
1528 1527 1533 1521 1512 1510 1509 1510 1513 1528 1527 1511 1510 1498 1493 1493 1495 1494 1488 1485 1483 1481 1481 1478 1471 1465 1460 1454 1450 1446 1444 1443 1440 1436 1433 1430 1426 1424 1424 1422 1421 1423 1427 1430
1529 1534 1547 1528 1519 1514 1516 1513 1512 1517 1520 1524 1517 1503 1492 1490 1496 1492 1487 1483 1481 1479 1478 1474 1468 1463 1457 1453 1448 1446 1444 1441 1439 1434 1433 1429 1426 1423 1421 1419 1419 1420 1424 1429
1531 1534 1538 1538 1527 1527 1520 1511 1511 1513 1519 1517 1506 1497 1489 1488 1488 1485 1482 1480 1478 1475 1473 1469 1464 1460 1456 1453 1448 1447 1444 1441 1438 1436 1433 1429 1424 1421 1418 1419 1420 1419 1424 1426
1530 1534 1531 1523 1519 1516 1513 1506 1501 1509 1501 1505 1491 1495 1487 1485 1481 1479 1477 1475 1474 1473 1471 1466 1463 1459 1456 1452 1449 1447 1444 1441 1438 1434 1431 1427 1423 1420 1412 1415 1420 1422 1425 1428
1531 1530 1525 1519 1514 1510 1504 1497 1492 1490 1492 1494 1488 1484 1478 1476 1478 1475 1474 1473 1472 1470 1468 1465 1462 1458 1456 1452 1449 1447 1444 1440 1436 1432 1429 1426 1423 1420 1414 1417 1421 1423 1426 1430
1528 1524 1528 1516 1510 1506 1509 1492 1488 1486 1482 1480 1486 1476 1471 1473 1472 1472 1472 1471 1470 1468 1467 1464 1461 1459 1456 1452 1450 1446 1442 1438 1433 1430 1427 1423 1422 1420 1419 1417 1421 1423 1427 1431
1519 1521 1523 1513 1512 1518 1493 1484 1481 1482 1479 1475 1474 1472 1471 1472 1472 1472 1471 1470 1468 1466 1465 1463 1460 1457 1454 1450 1446 1442 1439 1435 1429 1426 1423 1422 1420 1419 1420 1420 1423 1424 1427 1429
1507 1514 1515 1515 1517 1502 1488 1478 1479 1480 1480 1473 1472 1471 1470 1469 1470 1471 1471 1469 1467 1465 1463 1460 1457 1453 1450 1446 1441 1437 1435 1432 1427 1423 1421 1419 1417 1419 1420 1420 1424 1427 1429 1432
1506 1508 1513 1512 1515 1506 1481 1479 1478 1478 1483 1474 1474 1473 1472 1471 1479 1475 1470 1468 1466 1463 1460 1456 1453 1451 1447 1443 1439 1434 1430 1427 1423 1420 1417 1417 1417 1418 1420 1422 1423 1428 1432 1434
1514 1514 1513 1516 1506 1501 1483 1479 1479 1487 1488 1475 1474 1474 1473 1474 1475 1472 1469 1466 1463 1459 1455 1452 1450 1448 1445 1441 1436 1431 1426 1423 1420 1417 1416 1416 1416 1416 1419 1421 1420 1426 1431 1437
1507 1514 1525 1516 1510 1504 1479 1480 1482 1479 1475 1475 1474 1473 1473 1473 1471 1469 1467 1463 1460 1456 1453 1450 1448 1445 1441 1437 1431 1426 1421 1419 1416 1414 1413 1413 1413 1414 1419 1420 1424 1429 1433 1438
1505 1511 1507 1504 1496 1481 1480 1480 1478 1475 1474 1473 1473 1473 1472 1471 1470 1468 1465 1461 1457 1454 1450 1447 1443 1439 1435 1431 1426 1420 1415 1411 1410 1409 1411 1412 1412 1413 1417 1422 1426 1430 1435 1440
1500 1497 1500 1493 1482 1481 1479 1476 1475 1474 1472 1471 1471 1471 1470 1470 1468 1466 1463 1459 1455 1451 1447 1443 1439 1434 1428 1422 1416 1412 1407 1404 1404 1405 1407 1411 1412 1413 1417 1422 1427 1432 1437 1441
1503 1498 1495 1491 1484 1479 1475 1473 1470 1470 1469 1470 1469 1469 1469 1468 1466 1464 1461 1457 1453 1449 1445 1440 1434 1429 1420 1411 1405 1399 1396 1395 1396 1399 1404 1410 1412 1413 1419 1424 1429 1434 1440 1443
1495 1490 1487 1481 1482 1481 1475 1470 1466 1467 1468 1468 1468 1468 1468 1466 1466 1463 1460 1456 1452 1447 1442 1435 1429 1421 1409 1400 1391 1384 1382 1384 1389 1397 1403 1409 1411 1415 1420 1425 1431 1437 1442 1448
Wind_Speed
5 2 5 8 6 7 5 5 8 11 9 11 14 17 9 12 13 19 25 14 20 19 14 9 5 5 9 13 16 14 15 16 19 20 22 23 24 18 32 32 32 40 36 40
4 6 12 7 6 5 5 9 11 10 8 8 11 20 8 7 12 21 25 18 19 19 14 10 6 5 8 12 14 14 16 18 18 20 19 22 25 20 25 36 36 34 36 39
4 8 10 3 3 7 5 6 7 11 8 3 8 18 3 5 8 4 14 19 17 18 18 14 12 9 9 13 15 18 14 19 20 20 22 20 21 28 22 27 35 34 30 24
6 7 6 8 6 7 14 5 6 9 8 7 5 16 11 7 9 4 16 21 20 20 18 15 12 10 11 14 16 19 16 16 20 21 22 20 21 22 25 24 31 29 29 33
6 9 12 9 8 5 9 4 4 4 7 7 10 6 13 13 15 5 10 22 22 20 18 19 17 15 15 16 17 19 19 18 18 20 23 25 21 22 25 25 27 27 28 36
6 9 3 5 7 9 9 9 7 4 1 4 3 4 4 4 5 7 13 22 21 20 19 19 19 20 22 21 21 20 21 19 21 21 22 29 23 19 20 23 25 23 23 23
5 7 7 19 7 6 12 9 5 4 2 7 11 12 11 3 8 9 11 16 19 21 25 28 27 27 29 27 24 23 21 22 22 24 23 26 29 17 16 18 22 19 23 20
5 5 4 9 5 4 3 3 3 8 11 15 8 7 6 4 11 12 15 14 17 18 16 16 20 25 25 27 26 26 22 22 24 26 24 24 29 18 15 16 17 18 23 22
5 5 18 17 7 3 5 3 7 5 8 9 5 5 2 8 13 19 18 22 24 23 25 21 19 20 24 26 26 26 25 22 23 27 27 23 25 20 14 17 17 18 10 14
5 10 4 6 8 6 4 5 7 2 4 5 4 5 3 4 9 12 13 13 12 9 10 18 26 28 30 25 26 21 22 21 23 27 25 23 21 15 17 14 2 8 13 22
4 2 5 3 4 10 9 7 3 1 2 3 4 4 6 9 7 7 8 8 4 11 13 19 28 24 23 23 24 22 22 23 22 26 24 20 20 16 13 11 5 11 8 11
3 2 4 6 13 10 2 1 2 2 6 2 4 5 2 4 3 10 12 11 8 11 13 21 23 23 24 26 25 25 23 21 22 23 24 20 17 14 12 14 12 17 15 12
4 2 4 9 6 5 3 4 3 3 2 6 5 6 2 11 16 22 14 5 9 13 12 23 20 24 22 24 22 21 20 22 19 20 21 22 15 12 13 14 8 17 18 17
1 2 7 8 11 4 14 17 7 5 3 5 6 9 12 6 10 15 7 1 8 12 15 23 21 23 22 20 24 27 26 23 20 21 24 22 16 12 17 12 6 14 16 17
4 4 6 12 13 15 18 21 19 11 14 9 15 11 14 11 11 12 5 3 9 14 13 19 19 22 20 20 23 28 29 24 21 21 24 22 15 7 4 9 11 18 18 20
2 4 4 17 15 16 18 18 17 11 11 12 16 18 13 22 6 4 9 3 9 15 14 14 17 21 17 20 20 26 31 31 27 22 20 20 15 6 9 11 12 16 18 19
6 7 2 16 7 6 7 8 7 5 9 7 8 10 8 3 2 5 9 5 10 15 15 13 16 15 13 14 20 35 29 30 28 22 16 18 16 10 1 3 9 13 17 18
9 4 4 8 3 4 7 7 4 4 7 6 5 5 2 4 6 9 8 9 15 18 19 13 17 13 16 20 23 34 33 29 25 18 14 15 17 9 2 5 12 14 16 21
15 6 3 3 3 7 7 8 4 2 6 7 3 3 5 7 7 7 9 11 15 17 17 18 18 16 20 26 28 34 40 31 26 17 13 14 14 8 7 17 18 18 19 20
4 4 4 2 3 4 1 1 3 1 3 2 7 5 6 8 4 4 16 17 18 20 20 22 17 15 20 21 27 32 42 35 25 20 14 11 10 10 11 15 19 19 22 23
1 2 6 2 3 6 8 5 0 1 4 4 4 6 8 3 1 14 17 20 21 21 23 13 10 15 18 23 28 34 41 29 24 21 17 10 11 13 15 13 24 25 27 26
8 3 3 2 3 6 9 1 3 4 1 6 6 6 5 8 12 15 19 20 20 15 17 19 20 21 25 27 33 39 31 28 24 21 17 8 9 22 20 19 20 21 23 25
3 2 3 6 5 7 14 14 11 7 1 2 4 4 7 12 13 15 17 20 17 21 22 22 25 28 30 32 38 36 32 29 23 21 15 9 7 25 21 18 20 21 22 24
4 4 4 3 5 12 18 20 19 12 7 3 6 6 9 10 11 13 17 20 22 23 24 24 27 28 35 40 35 35 32 26 19 21 16 9 14 22 24 22 21 25 28 31
6 7 3 6 18 26 25 23 20 11 6 3 4 3 6 8 10 13 17 21 23 23 25 25 26 33 43 38 38 39 27 20 22 19 15 10 23 21 26 24 28 28 27 28
10 14 9 8 12 10 17 9 5 7 1 1 1 2 5 7 11 14 19 21 21 24 26 29 30 44 39 44 44 36 16 22 23 20 19 16 30 33 29 31 31 29 29 30
Wind_Direction
214 104 239 245 227 233 281 299 298 282 289 291 280 274 288 270 280 283 278 250 144 123 117 106 80 4 319 311 315 325 319 315 312 289 274 263 254 252 243 243 246 244 242 254
354 238 243 224 249 280 298 287 276 285 266 288 304 289 284 279 280 278 266 178 137 110 99 86 67 13 337 330 333 346 348 340 336 323 309 280 266 249 238 238 247 251 252 250
214 254 318 268 300 283 248 256 277 278 320 234 290 288 322 335 329 72 97 111 97 87 84 75 63 46 3 346 353 352 341 350 344 337 316 296 275 254 255 239 245 246 240 235
267 305 359 331 288 273 284 264 326 341 353 299 72 295 290 273 275 90 100 88 78 68 61 50 39 33 6 348 347 352 357 347 353 347 338 318 305 284 246 241 247 246 238 238
260 329 301 301 288 287 283 339 292 283 299 314 295 256 288 297 293 158 83 76 64 52 40 28 16 4 354 344 339 338 347 357 343 346 353 340 311 297 261 249 249 242 244 248
236 292 316 353 3 11 341 355 315 294 232 273 231 259 340 3 293 73 66 63 53 36 20 7 354 346 339 335 330 335 337 344 348 331 337 350 331 304 276 257 253 252 252 251
308 264 105 27 358 8 30 14 324 318 339 261 345 322 289 117 59 75 66 42 16 1 352 353 351 339 331 329 332 331 332 337 341 339 322 339 346 308 295 273 258 248 238 214
354 343 32 10 67 313 309 159 178 281 293 292 310 268 307 95 91 70 49 42 36 25 14 354 333 323 324 331 339 329 333 338 339 339 326 330 347 334 290 275 265 251 236 240
334 255 339 345 13 42 308 238 239 253 275 281 236 239 87 35 20 21 29 23 13 359 347 336 329 329 332 331 322 332 337 342 342 333 331 323 339 344 319 270 268 259 201 181
344 304 31 11 330 266 237 306 317 303 304 258 265 273 201 29 0 358 358 337 321 353 346 332 325 322 318 316 317 328 341 344 341 331 332 327 325 340 322 318 257 216 183 172
348 226 311 341 24 313 312 304 281 82 268 291 301 264 125 139 198 230 249 263 10 22 352 334 332 331 336 335 343 341 347 346 337 334 335 324 324 336 315 319 257 204 197 147
18 277 280 274 284 279 246 344 30 142 285 258 292 285 276 109 310 326 352 331 25 3 341 342 347 349 347 346 347 351 350 343 337 336 333 325 327 333 320 311 284 203 189 193
341 327 335 320 333 355 354 296 255 201 167 220 253 276 43 6 348 292 281 351 14 360 351 350 354 357 357 350 353 350 347 344 350 349 339 338 325 315 331 317 259 193 189 202
11 223 186 252 255 262 296 293 250 204 220 256 234 281 278 275 239 262 290 26 7 358 346 354 354 356 353 347 347 348 346 344 335 338 335 333 336 319 311 246 189 166 172 166
152 235 242 255 265 278 276 279 287 227 241 239 274 253 265 270 272 282 318 332 5 349 337 351 352 347 351 355 354 347 348 346 332 321 329 327 333 336 18 176 149 145 144 151
243 266 288 283 277 268 276 280 268 256 244 241 258 267 264 261 246 342 323 15 354 336 325 343 343 348 358 352 346 336 332 331 333 319 313 322 325 289 37 180 160 154 156 157
212 259 225 277 271 305 308 260 255 264 270 237 249 268 274 151 100 322 337 13 349 343 331 328 336 335 332 331 337 350 332 319 318 315 322 323 327 322 68 183 147 157 163 172
240 212 235 281 284 247 245 300 241 265 278 289 297 283 88 111 48 66 40 350 322 328 318 311 325 320 316 314 320 343 345 332 321 305 313 323 330 306 282 197 154 150 150 163
220 209 252 246 230 295 292 286 187 176 291 290 291 27 46 23 14 358 16 345 308 310 318 310 307 304 305 303 311 326 342 330 323 305 301 322 326 312 251 189 169 154 143 143
112 144 205 197 229 249 233 225 70 81 308 359 55 359 355 33 28 276 346 341 337 326 314 311 295 286 288 294 312 323 334 324 318 310 284 303 311 267 238 203 174 170 155 148
22 240 226 236 279 270 269 181 214 88 239 8 26 354 51 67 302 337 336 333 327 324 320 323 307 287 303 319 321 323 326 314 310 299 284 286 280 213 175 155 166 155 153 151
187 198 215 152 220 268 257 181 206 219 22 18 330 86 40 355 340 338 336 333 336 353 347 333 319 317 316 317 324 322 317 309 305 287 280 278 295 191 176 169 164 163 169 166
300 243 271 185 216 267 294 307 303 273 171 358 15 355 347 344 333 336 336 340 343 337 331 325 322 318 316 320 320 312 312 305 297 274 254 250 203 195 182 177 172 171 167 157
285 309 250 309 259 270 293 303 302 272 254 268 281 313 332 322 336 343 341 342 339 332 330 326 324 323 321 321 315 311 307 297 278 256 231 229 193 196 176 177 177 172 168 163
262 309 247 256 278 285 294 298 287 252 200 264 284 326 331 346 350 346 343 341 337 334 332 331 330 326 322 322 315 317 305 267 247 234 208 225 189 180 171 174 168 168 168 168
246 254 247 256 260 278 285 322 230 189 277 324 140 307 324 344 343 341 340 340 337 334 336 335 334 329 326 326 318 325 298 231 216 198 189 196 187 182 170 168 162 169 167 164